Location: Kvarnån
(66.4000°N, 22.2667°E)
Time: 21:47:03
(UTC+00:00)

CENTAUR R/B - Pass Details

Date: 15 October 2024
Orbit: 659 x 1524 km, 63.4° (Epoch: 06 November)

Event Time Altitude Azimuth Distance (km) Brightness Sun altitude
Exits shadow 23:02:35 36° 117° (ESE) 1,976 3.9 -32.0°
Drops below altitude 10° 23:07:28 10° 109° (ESE) 3,521 5.3 -31.9°
Sets 23:10:37 0° 107° (ESE) 4,574 6.0 -31.8°
